Location: St. Louis
(38.6270°N, 90.1994°W)
Time: 18:48:27
(UTC-06:00)

Tiros 1 despin weight - Pass Details

Date: 01 December 2021
Orbit: 592 x 641 km, 48.2° (Epoch: 18 January)

Event Time Altitude Azimuth Distance (km) Brightness Sun altitude
Rises 18:25:45 0° 303° (WNW) 2,825 ? -20.2°
Reaches altitude 10° 18:28:11 10° 312° (NW) 1,925 ? -20.7°
Enters shadow 18:32:00 36° 12° (NNE) 949 ? -21.4°
